TimePST,TemperatureF,Dew PointF,Humidity,Sea Level PressureIn,VisibilityMPH,Wind Direction,Wind SpeedMPH,Gust SpeedMPH,PrecipitationIn,Events,Conditions,WindDirDegrees,DateUTC
12:15 AM,57.2,53.6,88,30.09,10.0,Calm,Calm,-,N/A,,Clear,0,2013-03-03 08:15:00
12:35 AM,57.2,53.6,88,30.09,10.0,ESE,6.9,-,N/A,,Clear,120,2013-03-03 08:35:00
12:55 AM,55.4,53.6,94,30.09,10.0,ESE,5.8,-,N/A,,Clear,110,2013-03-03 08:55:00
1:15 AM,55.4,55.4,100,30.08,10.0,East,5.8,-,N/A,,Clear,100,2013-03-03 09:15:00
1:35 AM,57.2,55.4,94,30.07,10.0,Calm,Calm,-,N/A,,Clear,0,2013-03-03 09:35:00
1:55 AM,57.2,57.2,100,30.06,9.0,Calm,Calm,-,N/A,,Clear,0,2013-03-03 09:55:00
2:15 AM,57.2,57.2,100,30.06,10.0,Calm,Calm,-,N/A,,Clear,0,2013-03-03 10:15:00
2:35 AM,55.4,55.4,100,30.06,10.0,Calm,Calm,-,N/A,,Clear,0,2013-03-03 10:35:00
2:55 AM,57.2,57.2,100,30.06,10.0,NW,4.6,-,N/A,,Clear,310,2013-03-03 10:55:00
3:15 AM,57.2,55.4,94,30.06,10.0,Calm,Calm,-,N/A,,Clear,0,2013-03-03 11:15:00
3:35 AM,57.2,55.4,94,30.04,10.0,Calm,Calm,-,N/A,,Clear,0,2013-03-03 11:35:00
3:55 AM,55.4,55.4,100,30.05,9.0,Calm,Calm,-,N/A,,Clear,0,2013-03-03 11:55:00
4:15 AM,55.4,55.4,100,30.04,10.0,Calm,Calm,-,N/A,,Mostly Cloudy,0,2013-03-03 12:15:00
4:35 AM,55.4,55.4,100,30.05,10.0,Calm,Calm,-,N/A,,Mostly Cloudy,0,2013-03-03 12:35:00
4:55 AM,55.4,55.4,100,30.04,9.0,Calm,Calm,-,N/A,,Scattered Clouds,0,2013-03-03 12:55:00
5:15 AM,55.4,55.4,100,30.05,8.0,Calm,Calm,-,N/A,,Scattered Clouds,0,2013-03-03 13:15:00
5:35 AM,55.4,55.4,100,30.05,10.0,SSW,5.8,-,N/A,,Partly Cloudy,200,2013-03-03 13:35:00
5:55 AM,55.4,55.4,100,30.04,9.0,West,5.8,-,N/A,,Clear,260,2013-03-03 13:55:00
6:45 AM,55.4,55.4,100,30.04,5.0,Calm,Calm,-,N/A,,Haze,0,2013-03-03 14:45:00
7:45 AM,57.2,55.4,94,30.05,5.0,Calm,Calm,-,N/A,,Haze,0,2013-03-03 15:45:00
8:45 AM,59.0,57.2,94,30.06,5.0,Calm,Calm,-,N/A,,Haze,0,2013-03-03 16:45:00
9:45 AM,62.6,57.2,82,30.06,5.0,Calm,Calm,-,N/A,,Haze,0,2013-03-03 17:45:00
10:45 AM,66.2,55.4,68,30.06,5.0,Calm,Calm,-,N/A,,Haze,0,2013-03-03 18:45:00
11:45 AM,66.2,44.6,46,30.07,5.0,North,12.7,-,N/A,,Haze,360,2013-03-03 19:45:00
12:45 PM,69.8,46.4,43,30.04,7.0,North,9.2,-,N/A,,Overcast,360,2013-03-03 20:45:00
1:45 PM,71.6,44.6,38,30.03,7.0,NNW,13.8,-,N/A,,Mostly Cloudy,340,2013-03-03 21:45:00
2:45 PM,68.0,44.6,43,30.03,7.0,North,11.5,-,N/A,,Mostly Cloudy,350,2013-03-03 22:45:00
3:45 PM,66.2,48.2,52,30.02,7.0,NE,9.2,-,N/A,,Mostly Cloudy,40,2013-03-03 23:45:00
4:45 PM,64.4,50.0,59,30.01,10.0,NNE,6.9,-,N/A,,Mostly Cloudy,30,2013-03-04 00:45:00
5:45 PM,62.6,51.8,68,30.02,10.0,Calm,Calm,-,N/A,,Mostly Cloudy,0,2013-03-04 01:45:00
6:45 PM,62.6,48.2,59,30.02,10.0,Calm,Calm,-,N/A,,Mostly Cloudy,0,2013-03-04 02:45:00
7:45 PM,60.8,51.8,72,30.02,10.0,Calm,Calm,-,N/A,,Mostly Cloudy,0,2013-03-04 03:45:00
8:15 PM,59.0,51.8,77,30.02,10.0,North,-9999.0,-,N/A,,Overcast,0,2013-03-04 04:15:00
8:35 PM,57.2,53.6,88,30.03,10.0,Calm,Calm,-,N/A,,Mostly Cloudy,0,2013-03-04 04:35:00
8:45 PM,55.4,53.6,94,30.03,10.0,Calm,Calm,-,N/A,,Mostly Cloudy,0,2013-03-04 04:45:00
8:55 PM,55.4,53.6,94,30.03,10.0,North,-9999.0,-,N/A,,Scattered Clouds,0,2013-03-04 04:55:00
9:15 PM,53.6,53.6,100,30.03,10.0,North,-9999.0,-,N/A,,Clear,0,2013-03-04 05:15:00
9:35 PM,51.8,51.8,100,30.04,10.0,North,-9999.0,-,N/A,,Clear,0,2013-03-04 05:35:00
9:55 PM,51.8,51.8,100,30.04,10.0,Calm,Calm,-,N/A,,Clear,0,2013-03-04 05:55:00
10:15 PM,51.8,50.0,94,30.05,10.0,North,6.9,-,N/A,,Clear,10,2013-03-04 06:15:00
10:35 PM,51.8,51.8,100,30.05,10.0,North,-9999.0,-,N/A,,Clear,0,2013-03-04 06:35:00
10:55 PM,51.8,50.0,94,30.05,10.0,North,5.8,-,N/A,,Clear,10,2013-03-04 06:55:00
11:15 PM,50.0,50.0,100,30.05,10.0,North,8.1,-,N/A,,Partly Cloudy,10,2013-03-04 07:15:00
11:35 PM,50.0,50.0,100,30.05,10.0,North,8.1,-,N/A,,Clear,360,2013-03-04 07:35:00
11:55 PM,48.2,48.2,100,30.06,10.0,North,5.8,-,N/A,,Clear,10,2013-03-04 07:55:00